星链-30148 (STARLINK-30148 )

导读

STARLINK-30148是美国太空探索技术公司SpaceX星链互联网卫星星座中的一员,于2023年8月11日发射入轨。星链计划旨在构建全球卫星互联网星座,为全球偏远地区、海洋等网络覆盖薄弱区域提供高速宽带互联网服务,该卫星加入后进一步扩充了星链星座的在轨卫星规模,提升星座的覆盖与服务能力。

Basic Information
目录编号:
57617
目录名称:
STARLINK-30148
国际标识:
2023-119R
轨道中心:
EARTH
卫星名称:
星链-30148
卫星全名:
星链-30148 (STARLINK-30148 )
卫星状态:
在轨 (已飞行1120 天)
发射日期:
2023-08-11 UTC
国别 :
美国 (US)
星等 :
--
Orbit Information
数据来源 国际轨道数据
星历时间: 2026-09-04T02:15:27+0800
19小时前
查看轨道信息
半长轴: 6861.185km
偏心率: 0.0002516
轨道倾角: 43.002°
近地点辐角 291.603°
升交点赤经 155.628°
平近点角 68.456°
近地点: 481.321km
远地点: 484.775km
周期: 94.267分钟
每日圈数: 15.275804
Detailed Information
固有亮度:
5
最大亮度:
0.3
卫星平台:
Starlink v2.0 mini
覆盖范围:
全球
运营商:
太空探索技术公司
运营商所在国:
美国
制造商(研发单位):
太空探索技术公司
制造商所在国:
美国
使用方式:
暂无
Satellite Introduction
星链(Starlink)计划是由太空探索技术公司(SpaceX)提出的一个巨型低轨卫星互联网星座项目,计划在2019年至2024年间在太空搭建由约1.2万颗卫星组成的“星链”网络,其中1584颗将部署在地球上空550千米处的近地轨道,并从2020年开始工作。该卫星仍在工作。
2D Orbit Map
3D Orbit Map
Orbit Altitude Analysis Chart
Orbit Inclination Analysis Chart
Orbit Comprehensive Analysis Chart
View Comprehensive Chart
Conjunction Data List
Event ID Objects TCA Miss Dist (km) Collision Risk Probability Collision Risk Index (CRI) Action
CDM_260905-044305-761706-388821
2026-09-05T
04:43:35+0000
1.178 km
极远距离
5.808647E-6 低风险 0.5
CDM_260905-002805-325505-761722
2026-09-05T
00:28:37+0000
2.014 km
极远距离
1.314763E-6 低风险 0.37
CDM_260905-053005-761706-388821
2026-09-05T
05:30:41+0000
2.443 km
极远距离
8.161879E-7 极低风险 0.33